logo
App data

Revenge of Roger Rouge

Navigate a tale as unpredictable as the seas in this thrilling arcade game brought to life with naval battles that will blow you away! Vibrant visuals and oldschool gameplay collide to provide a shoot em’ and loot em’ adventure you won’t want to miss.
Store | Hub | SteamDB
Developer: Trazzy Entertainment Publisher: Trazzy Entertainment
Genre: Action, Casual, Indie, Simulation
Languages: English
Tags: Action (34), Indie (24), Casual (23), Simulation (18), Side Scroller (12), Shooter (12), Retro (12), Atmospheric (10), Great Soundtrack (9), War (9), Beat 'em up (8), Medieval (8)
Category: Single-player, Steam Trading Cards
Release date: Apr 22, 2016
Price: $0.74 25%
Owners: 20,000 .. 50,000
Followers: 250
Peak concurrent players yesterday: 103
Playtime in the last 2 weeks: 03:50 (average) 04:12 (median)
Playtime total: 04:19 (average) 04:32 (median)

Steam Spy is still in beta, so expect major bugs.

Owners data:

Access restricted.

This feature is only available to users with special access rights. Sorry.

If you want to proceed, you need to register or log in first and then back Steam Spy on Patreon. Look for Indie or Pro pledge.

Don't forget to use the same email as on Steam Spy!

Audience in 2 weeks:

Access restricted.

This feature is only available to users with special access rights. Sorry.

If you want to proceed, you need to register or log in first and then back Steam Spy on Patreon. Look for Indie or Pro pledge.

Don't forget to use the same email as on Steam Spy!

Peak daily concurrent players:

CCU data courtesy of SteamDB. Used with permission.

Hourly concurrent players:

Daily Twitch stats:

Hourly Twitch stats:

YouTube:

The views data is based on top 50 videos uploaded last week. Actual number of views might be more than the number shown.

The displayed number of videos uploaded yesterday is limited to 50, so if there were more videos uploaded, the number will still show 50.

If the game has commonly used word as its name (like "FEAR" or "Volume") its number of Youtube views might be wrong.

Games similar to this one:

# Game Release date
Price
Score rank
(Userscore / Metascore)
Owners
Players
Playtime (Median)
1 Little Big Adventure 2 Oct 20, 2015 $1.9999% (98%)0 .. 20,0000%00:00 (00:00)
2 Militia Dec 2, 2015 $2.9999% (98%)0 .. 20,0000%00:00 (00:00)
3 Seven Kingdoms: Ancient Adversaries Jun 8, 1998 $2.39N/A (N/A)0 .. 20,0000%00:00 (00:00)
4 Dungeon Warfare Nov 4, 2015 $3.3997% (97%)20,000 .. 50,0000%00:00 (00:00)
5 Imperium Galactica Mar 1, 1997 $1.24N/A (N/A)0 .. 20,0000%00:00 (00:00)
6 Voodoo Vince: Remastered Apr 18, 2017 $14.9995% (96%/63%)0 .. 20,0000%00:00 (00:00)
7 Defend The Highlands Nov 6, 2015 $2.4995% (96%)100,000 .. 200,0001.31%00:54 (01:10)
8 Templar Battleforce Sep 21, 2015 $4.9993% (95%)20,000 .. 50,0000%00:00 (00:00)
9 Outcast 1.1 Dec 18, 2014 $1.7993% (95%)20,000 .. 50,0000%00:00 (00:00)
10 PixelJunk Shooter Nov 11, 2013 $1.3493% (95%/73%)100,000 .. 200,0000%00:00 (00:00)
11 Darknet Jun 8, 2017 $9.8993% (95%)0 .. 20,0000%00:00 (00:00)
12 Hegemony Gold: Wars of Ancient Greece Mar 30, 2012 $4.9493% (95%)20,000 .. 50,0000%00:00 (00:00)
13 Chicken Invaders 2 Mar 4, 2016 $1.9993% (95%)0 .. 20,0000%00:00 (00:00)
14 Run or Die Dec 11, 2014 $0.4990% (94%)0 .. 20,0000%00:00 (00:00)
15 Stick it to The Man! Dec 13, 2013 $2.7990% (94%/83%)20,000 .. 50,0000%00:00 (00:00)
16 Star Trek: Judgment Rites May 8, 2015 $9.99N/A (N/A)0 .. 20,0000%00:00 (00:00)
17 ESCHATOS Sep 18, 2015 $8.9990% (94%)0 .. 20,0000%00:00 (00:00)
18 Neon Chrome Apr 28, 2016 $4.4990% (94%/74%)200,000 .. 500,0001.02%00:26 (00:12)
19 Supercharged Robot VULKAISER Jun 4, 2015 $2.4990% (94%)20,000 .. 50,0000%00:00 (00:00)
20 Handsome Mr. Frog Aug 8, 2016 $0.4990% (94%)0 .. 20,0000%00:00 (00:00)
21 Audio Arena Jul 25, 2016 $1.04N/A (N/A)0 .. 20,0000%00:00 (00:00)
22 Kalimba Apr 22, 2015 $2.4990% (94%/81%)0 .. 20,0000%00:00 (00:00)
23 Majesty Gold HD Sep 4, 2009 $2.4990% (94%)100,000 .. 200,0000%00:00 (00:00)
24 Flywrench Aug 24, 2015 $3.4990% (94%)0 .. 20,0000%00:00 (00:00)
25 Gold Rush! Classic Dec 23, 1988 $1.49N/A (N/A)200,000 .. 500,0001.73%04:14 (04:54)
26 Super Trench Attack! Jul 24, 2014 $0.4987% (93%)50,000 .. 100,0000.52%04:45 (01:35)
27 Bleed Jul 3, 2013 $1.9987% (93%)100,000 .. 200,0000.76%04:03 (01:21)
28 Eufloria HD Oct 14, 2014 $14.9987% (93%)200,000 .. 500,0000%00:00 (00:00)
29 Adventure in the Tower of Flight Dec 23, 2015 $1.9987% (93%)0 .. 20,0000%00:00 (00:00)
30 Kick Ass Commandos Nov 17, 2016 $4.9987% (93%)20,000 .. 50,0000%00:00 (00:00)
31 Pharaoh Rebirth+ Mar 17, 2016 $2.9987% (93%)0 .. 20,0000%00:00 (00:00)
32 Major Mayhem Feb 24, 2014 $4.9987% (93%)20,000 .. 50,0000%00:00 (00:00)
33 Tallowmere Mar 3, 2015 $2.3987% (93%)20,000 .. 50,0000%00:00 (00:00)
34 Ys VI: The Ark of Napishtim Apr 28, 2015 $5.9983% (92%)50,000 .. 100,0000%00:00 (00:00)
35 The Juicer Sep 6, 2012 $0.4983% (92%)20,000 .. 50,0000%00:00 (00:00)
36 Great Big War Game Aug 28, 2012 $6.99N/A (N/A)0 .. 20,0000%00:00 (00:00)
37 Knightmare Tower Jun 16, 2014 $0.9983% (92%)0 .. 20,0000%00:00 (00:00)
38 Death Ray Manta SE Sep 17, 2015 $0.7983% (92%)20,000 .. 50,0000%00:00 (00:00)
39 Shmups Skill Test シューティング技能検定 Jun 9, 2016 $3.99N/A (N/A)0 .. 20,0000%00:00 (00:00)
40 Battle Academy 2: Eastern Front Sep 12, 2014 $9.9983% (92%/78%)0 .. 20,0000%00:00 (00:00)
41 Super Cyborg Jul 8, 2015 $1.9983% (92%)20,000 .. 50,0000%00:00 (00:00)
42 Anarcute Jul 12, 2016 $5.9983% (92%/79%)0 .. 20,0004.17%02:48 (00:56)
43 Below Kryll Sep 7, 2015 $0.9983% (92%)0 .. 20,0000%00:00 (00:00)
44 Counter Spell Oct 5, 2015 $5.9983% (92%)0 .. 20,0000%00:00 (00:00)
45 Wars and Warriors: Joan of Arc Feb 7, 2004 $1.7479% (91%/60%)0 .. 20,0000%00:00 (00:00)
46 Armed with Wings: Rearmed Jun 1, 2017 $6.9979% (91%)20,000 .. 50,0000%00:00 (00:00)
47 RIVE: Wreck, Hack, Die, Retry! Sep 13, 2016 $3.7479% (91%)200,000 .. 500,0000.26%00:30 (00:10)
48 Valley Aug 24, 2016 $3.9979% (91%)100,000 .. 200,0001.77%01:21 (00:38)
49 Spider: Rite of the Shrouded Moon Aug 6, 2015 $2.9979% (91%)20,000 .. 50,0000%00:00 (00:00)
50 Earth Defense Force: Insect Armageddon Dec 14, 2011 $9.9979% (91%/69%)50,000 .. 100,0001.39%10:07 (03:22)
51 Ittle Dew Jul 23, 2013 $4.9979% (91%/67%)100,000 .. 200,0000.45%01:10 (00:23)
52 Khet 2.0 Oct 1, 2014 $2.4979% (91%)50,000 .. 100,0000%00:00 (00:00)
53 Momodora III Jul 1, 2014 $1.9979% (91%)50,000 .. 100,0002.47%03:59 (02:39)
54 Skulls of the Shogun Jul 29, 2013 $3.9979% (91%/72%)100,000 .. 200,0000.4%00:51 (00:17)
55 Explosionade Sep 23, 2015 $3.99N/A (N/A)0 .. 20,0001.85%01:31 (00:30)
56 Angry Video Game Nerd II: ASSimilation Mar 29, 2016 $9.9979% (91%)20,000 .. 50,0000%00:00 (00:00)
57 Clash of Puppets Dec 16, 2014 $2.9979% (91%)0 .. 20,0000%00:00 (00:00)
58 Demons with Shotguns Apr 25, 2016 $0.99N/A (N/A)0 .. 20,0000%00:00 (00:00)
59 Miracle Fly Oct 26, 2015 $2.39N/A (N/A)20,000 .. 50,0000%00:00 (00:00)
60 Mad Bullets Jun 10, 2016 $1.9979% (91%)0 .. 20,0000%00:00 (00:00)
61 Warrior Kings: Battles Sep 30, 2003 $1.4979% (91%/64%)20,000 .. 50,0000%00:00 (00:00)
62 Flashpoint Campaigns: Red Storm Player's Edition Oct 9, 2013 $14.4979% (91%)0 .. 20,0000%00:00 (00:00)
63 Dandy: Or a Brief Glimpse Into the Life of the Candy Alchemist Aug 4, 2015 $9.99N/A (N/A)0 .. 20,0000%00:00 (00:00)
64 Blue Estate The Game Apr 8, 2015 $3.2479% (91%/59%)50,000 .. 100,0000%00:00 (00:00)
65 Swords and Soldiers HD Dec 2, 2010 $1.9976% (90%)50,000 .. 100,0001.62%00:17 (00:10)
66 Silent Storm Gold Edition Sep 9, 2004 $2.4976% (90%/83%)200,000 .. 500,0000%00:00 (00:00)
67 Kohan: Ahriman's Gift Nov 6, 2001 $9.99N/A (N/A/79%)0 .. 20,0000%00:00 (00:00)
68 Ace of Seafood Apr 8, 2016 $5.9976% (90%)0 .. 20,0000%00:00 (00:00)
69 Kohan II: Kings of War Aug 24, 2011 $9.9976% (90%/81%)20,000 .. 50,0000%00:00 (00:00)
70 Apocalypse: Party's Over May 30, 2016 $2.4976% (90%)0 .. 20,0000%00:00 (00:00)
71 Death's Hangover Jan 20, 2017 $0.4976% (90%)20,000 .. 50,0005.49%01:51 (01:02)
72 Headlander Jul 25, 2016 $5.9976% (90%/74%)100,000 .. 200,0000%00:00 (00:00)
73 Planet of the Eyes Aug 24, 2015 $2.4976% (90%/66%)50,000 .. 100,0000%00:00 (00:00)
74 Superstatic Sep 15, 2015 $0.99N/A (N/A)0 .. 20,0000%00:00 (00:00)
75 Weird Hero Nov 18, 2016 $0.7476% (90%)0 .. 20,0000%00:00 (00:00)
76 Near Death Aug 2, 2016 $3.7476% (90%/70%)0 .. 20,0000%00:00 (00:00)
77 Wild Guns Reloaded Jul 11, 2017 $9.9976% (90%)0 .. 20,0000%00:00 (00:00)
78 Reverse Crawl Sep 24, 2015 $2.0373% (89%)20,000 .. 50,0000%00:00 (00:00)
79 Spectromancer Feb 11, 2009 $9.9973% (89%)20,000 .. 50,0000%00:00 (00:00)
80 Zombo Buster Rising Oct 2, 2016 $0.9973% (89%)0 .. 20,0000%00:00 (00:00)
81 MoonBase Commander Aug 13, 2002 $1.4973% (89%/77%)20,000 .. 50,0000%00:00 (00:00)
82 Fort Meow Jun 25, 2015 $1.5973% (89%)0 .. 20,0000%00:00 (00:00)
83 Amaranthine Apr 6, 2016 $0.89N/A (N/A)0 .. 20,0005.26%02:45 (01:30)
84 CastleStorm Jul 29, 2013 $2.4973% (89%/73%)100,000 .. 200,0000%00:00 (00:00)
85 Command: Northern Inferno Oct 22, 2015 $9.79N/A (N/A)0 .. 20,0000%00:00 (00:00)
86 Sneaky Sneaky Nov 12, 2014 $4.9973% (89%/63%)0 .. 20,0000%00:00 (00:00)
87 Tcheco in the Castle of Lucio Jun 22, 2015 $0.4973% (89%)50,000 .. 100,0000.44%00:02 (00:00)
88 Warhammer 40,000: Dawn of War – Winter Assault Aug 7, 2007 $3.2473% (89%)500,000 .. 1,000,0000.21%04:40 (01:33)
89 System Crash Mar 10, 2016 $7.4973% (89%)0 .. 20,0000%00:00 (00:00)
90 Codename: Panzers, Phase Two Jul 21, 2005 $3.7473% (89%/80%)20,000 .. 50,0000%00:00 (00:00)
91 Lethe - Episode One Aug 1, 2016 $2.9973% (89%)0 .. 20,0005.26%01:41 (01:36)
92 Super Furball May 13, 2014 $0.91N/A (N/A)0 .. 20,0000%00:00 (00:00)
93 The Fall May 30, 2014 $1.9970% (88%/76%)200,000 .. 500,0000.67%01:08 (00:45)
94 Avoid - Sensory Overload Apr 8, 2014 $0.9970% (88%)0 .. 20,0000%00:00 (00:00)
95 Atom Zombie Smasher Mar 14, 2011 $7.9970% (88%/75%)200,000 .. 500,0000%00:00 (00:00)
96 The Way May 20, 2016 $3.7470% (88%/67%)20,000 .. 50,0001.79%05:50 (03:53)
97 Graviteam Tactics: Mius-Front Mar 4, 2016 $26.2470% (88%)0 .. 20,0000%00:00 (00:00)
98 Lethal VR Nov 8, 2016 $3.7470% (88%/66%)0 .. 20,0000%00:00 (00:00)
99 Earn to Die 2 May 5, 2016 $4.9970% (88%)0 .. 20,0000%00:00 (00:00)
100 Viking Squad Oct 4, 2016 $7.4970% (88%)0 .. 20,0000%00:00 (00:00)
101 Anodyne Mar 22, 2013 $3.3970% (88%/75%)100,000 .. 200,0000%00:00 (00:00)
102 Greed Corp Dec 10, 2010 $9.9970% (88%/76%)200,000 .. 500,0000%00:00 (00:00)
103 Battlepillars Gold Edition Apr 28, 2014 $2.4970% (88%)20,000 .. 50,0000%00:00 (00:00)
104 Shadow Blade: Reload Aug 10, 2015 $4.4967% (87%/70%)20,000 .. 50,0000%00:00 (00:00)
105 Spooky Cats Jun 4, 2015 $0.7467% (87%)20,000 .. 50,0000%00:00 (00:00)
106 Blacksea Odyssey Jun 1, 2016 $4.9967% (87%/74%)0 .. 20,0000%00:00 (00:00)
107 The Tiny Tale 2 Jan 30, 2015 $1.74N/A (N/A)0 .. 20,0000%00:00 (00:00)
108 TRON 2.0 Aug 22, 2003 $3.4967% (87%/84%)50,000 .. 100,0000%00:00 (00:00)
109 Civilization IV: Warlords Jul 24, 2006 $4.9967% (87%/84%)1,000,000 .. 2,000,0000%00:00 (00:00)
110 Syrian Warfare Feb 21, 2017 $4.9467% (87%)50,000 .. 100,0006.06%01:41 (01:07)
111 Mr. Shifty Apr 13, 2017 $4.9467% (87%)50,000 .. 100,0000.85%00:59 (00:58)
112 Bullet Sorrow VR Apr 17, 2017 $19.9967% (87%)0 .. 20,0000%00:00 (00:00)
113 Sang-Froid - Tales of Werewolves Apr 5, 2013 Free67% (87%/79%)200,000 .. 500,0000.44%00:34 (00:12)
114 Neon Shadow Aug 25, 2016 $4.99N/A (N/A)0 .. 20,0000%00:00 (00:00)
115 Supreme Commander Sep 28, 2011 $3.2467% (87%/86%)500,000 .. 1,000,0000.36%01:23 (00:54)
116 Executive Assault Jul 17, 2015 $9.7465% (86%)20,000 .. 50,0000%00:00 (00:00)
117 Arcane Sorcery Sep 15, 2015 $4.99N/A (N/A)0 .. 20,0000%00:00 (00:00)
118 N2O: Nitrous Oxide Jun 29, 2015 $4.99N/A (N/A)0 .. 20,0000%00:00 (00:00)
119 Magnifico Dec 2, 2014 $1.2465% (86%)50,000 .. 100,0001.54%01:27 (00:29)
120 Ghost Master Dec 21, 2006 $0.7465% (86%/81%)100,000 .. 200,0000%00:00 (00:00)
121 Rush for Berlin Gold Oct 29, 2009 $2.4965% (86%/76%)20,000 .. 50,0000%00:00 (00:00)
122 Concealed Intent Aug 2, 2016 $2.99N/A (N/A)0 .. 20,0000%00:00 (00:00)
123 Star Ruler Sep 20, 2010 $2.4965% (86%)100,000 .. 200,0000%00:00 (00:00)
124 Super Chibi Knight Jun 24, 2015 $2.4965% (86%)20,000 .. 50,0000%00:00 (00:00)
125 Interloper May 21, 2015 Free65% (86%/77%)50,000 .. 100,0000%00:00 (00:00)
126 Meltdown Jun 5, 2014 $2.4465% (86%)50,000 .. 100,0000%00:00 (00:00)
127 Age of Wonders Shadow Magic Oct 2010 $2.4965% (86%/82%)100,000 .. 200,0000%00:00 (00:00)
128 Time Rifters Oct 21, 2014 $3.9965% (86%)0 .. 20,0000%00:00 (00:00)
129 The Haunted: Hells Reach Oct 24, 2011 $1.7965% (86%/51%)50,000 .. 100,0000%00:00 (00:00)
130 VelocityUltra Dec 12, 2013 $4.9965% (86%)50,000 .. 100,0000%00:00 (00:00)
131 ENSLAVED: Odyssey to the West Premium Edition Oct 24, 2013 $4.9962% (85%/70%)200,000 .. 500,0000.22%00:13 (00:04)
132 Ballistic Tanks Sep 20, 2016 $0.9962% (85%)0 .. 20,0000%00:00 (00:00)
133 CRYPTARK Jun 20, 2017 $3.7462% (85%/80%)50,000 .. 100,0001.67%00:41 (00:13)
134 ShootMania Storm Apr 10, 2013 $6.7962% (85%/76%)50,000 .. 100,0000%00:00 (00:00)
135 NOBUNAGA'S AMBITION: Souzou (Traditional Chinese version) Aug 2014 $24.9962% (85%)20,000 .. 50,00010%00:25 (00:08)
136 Romance of the Three Kingdoms Ⅴ with Power Up Kit / 三國志Ⅴ with パワーアップキット Apr 18, 2017 $19.99N/A (N/A)0 .. 20,0000%00:00 (00:00)
137 Slash or Die Jun 3, 2016 $1.1962% (85%)50,000 .. 100,0000%00:00 (00:00)
138 Steel Rain Dec 3, 2015 $2.79N/A (N/A)0 .. 20,0000%00:00 (00:00)
139 Last Knight: Rogue Rider Edition Oct 3, 2014 $1.5959% (84%)20,000 .. 50,0001.3%02:01 (00:40)
140 Legend (1994) Apr 1, 1994 $2.49N/A (N/A)0 .. 20,0000%00:00 (00:00)
141 Conflict Desert Storm May 28, 2012 $0.9759% (84%/56%)20,000 .. 50,0000%00:00 (00:00)
142 Fat Chicken Dec 4, 2014 $9.99N/A (N/A)0 .. 20,0000%00:00 (00:00)
143 The Men of Yoshiwara: Kikuya Oct 15, 2015 $9.8959% (84%)0 .. 20,0000%00:00 (00:00)
144 Western 1849 Reloaded Feb 10, 2017 $0.99N/A (N/A)0 .. 20,0000%00:00 (00:00)
145 Dustoff Heli Rescue Mar 6, 2015 $0.5159% (84%)20,000 .. 50,0000%00:00 (00:00)
146 Battle Group 2 Jun 13, 2014 $0.7959% (84%)50,000 .. 100,0000.93%00:01 (00:00)
147 Act of War: Direct Action Mar 14, 2005 $1.1959% (84%/82%)20,000 .. 50,0000%00:00 (00:00)
148 Eador: Genesis Aug 7, 2009 $1.1959% (84%)50,000 .. 100,0000%00:00 (00:00)
149 Rooks Keep Dec 5, 2014 $2.7159% (84%)20,000 .. 50,0000%00:00 (00:00)
150 Yomi May 8, 2015 $7.4959% (84%)0 .. 20,0000%00:00 (00:00)
151 Foresight Nov 28, 2014 $2.99N/A (N/A)0 .. 20,0001.2%00:15 (00:05)
152 Child Of Ault Jan 24, 2017 $9.99N/A (N/A)0 .. 20,0000%00:00 (00:00)
153 Gurgamoth Feb 16, 2016 $4.99N/A (N/A)50,000 .. 100,0000%00:00 (00:00)
154 Bulletstorm: Full Clip Edition Apr 7, 2017 $9.9957% (83%/76%)20,000 .. 50,0004.76%00:40 (00:26)
155 Disciples Sacred Lands Gold Oct 4, 1999 $0.7957% (83%)50,000 .. 100,0001.92%00:58 (00:19)
156 NOBUNAGA'S AMBITION: Sphere of Influence Sep 1, 2015 $23.9957% (83%/70%)20,000 .. 50,0000%00:00 (00:00)
157 Delta Force 2 Jun 18, 2009 $1.2457% (83%)20,000 .. 50,0004%01:57 (00:39)
158 Advanced Tactics Gold Apr 12, 2011 $9.8957% (83%)0 .. 20,0000%00:00 (00:00)
159 Ace of Protectors Jun 27, 2016 $1.19N/A (N/A)0 .. 20,0000%00:00 (00:00)
160 Orbital Gear Aug 7, 2014 $0.9957% (83%/59%)200,000 .. 500,0000.56%02:02 (01:21)
161 TY the Tasmanian Tiger 4 Sep 17, 2015 $1.4957% (83%)0 .. 20,0000%00:00 (00:00)
162 Galaxy Admirals Jan 17, 2017 $0.9957% (83%)50,000 .. 100,0000%00:00 (00:00)
163 Sudden Strike 2 Gold Aug 30, 2002 $2.9957% (83%)20,000 .. 50,0000%00:00 (00:00)
164 GIBZ Apr 7, 2017 $2.7957% (83%)0 .. 20,0000%00:00 (00:00)
165 Crush Your Enemies Jul 13, 2016 $0.9957% (83%/63%)20,000 .. 50,0003.23%01:30 (00:30)
166 Rack N Ruin Sep 1, 2015 $9.99N/A (N/A)0 .. 20,0000%00:00 (00:00)
167 Decisive Campaigns: The Blitzkrieg from Warsaw to Paris Aug 26, 2010 $9.59N/A (N/A)0 .. 20,0000%00:00 (00:00)
168 After The End: The Harvest Jun 2, 2017 $1.9954% (82%)20,000 .. 50,0000%00:00 (00:00)
169 She Wants Me Dead May 13, 2016 $7.9954% (82%)0 .. 20,0000%00:00 (00:00)
170 Shadow Ops: Red Mercury Sep 17, 2004 $1.7454% (82%/61%)20,000 .. 50,0000%00:00 (00:00)
171 htoL#NiQ: The Firefly Diary / htoL#NiQ-ホタルノニッキ- May 18, 2016 $4.9954% (82%)0 .. 20,0000%00:00 (00:00)
172 Square Brawl Oct 22, 2015 $4.9954% (82%)0 .. 20,0000%00:00 (00:00)
173 Defense Zone Jul 14, 2014 $2.39N/A (N/A)0 .. 20,0000%00:00 (00:00)
174 Fleet Command May 15, 1999 $1.9954% (82%)20,000 .. 50,0000%00:00 (00:00)
175 Anomaly 2 May 15, 2013 $2.9952% (81%/77%)200,000 .. 500,0000.55%00:24 (00:16)
176 Fate of the World Feb 28, 2011 $4.9952% (81%/70%)50,000 .. 100,0000%00:00 (00:00)
177 PixelJunk Shooter Ultimate Oct 21, 2015 $1.4952% (81%)20,000 .. 50,0000%00:00 (00:00)
178 Weapon of Choice Sep 23, 2015 $4.99N/A (N/A)0 .. 20,0000%00:00 (00:00)
179 Graviteam Tactics: Operation Star Mar 22, 2012 $22.4952% (81%)20,000 .. 50,0000%00:00 (00:00)
180 Junk Jack Nov 30, 2016 $11.2452% (81%)0 .. 20,0000%00:00 (00:00)
181 Toadled Sep 22, 2016 $0.4952% (81%)50,000 .. 100,0000%00:00 (00:00)
182 Jim Power -The Lost Dimension Dec 10, 1993 $2.49N/A (N/A)0 .. 20,0001.89%04:48 (01:36)
183 Blade Arcus from Shining: Battle Arena Jul 28, 2016 $11.9952% (81%)0 .. 20,0000%00:00 (00:00)
184 In Verbis Virtus Apr 3, 2015 $4.9952% (81%)50,000 .. 100,0001.12%00:06 (00:02)
185 Age of Wonders Oct 2010 $1.4952% (81%)100,000 .. 200,0000%00:00 (00:00)
186 Enemy Mind Jun 6, 2014 $1.9952% (81%)200,000 .. 500,0000.25%00:01 (00:00)
187 Zeno Clash 2 Apr 30, 2013 $2.9950% (80%)200,000 .. 500,0000.77%00:47 (00:46)
188 Trigger Runners Mar 3, 2016 $1.9950% (80%)0 .. 20,0000%00:00 (00:00)
189 rymdkapsel Jan 30, 2014 $7.9950% (80%/77%)0 .. 20,0000%00:00 (00:00)
190 Cultures - 8th Wonder of the World Mar 26, 2015 $0.9950% (80%)50,000 .. 100,0000%00:00 (00:00)
191 Fantasy Wars Aug 6, 2010 $1.2450% (80%/67%)50,000 .. 100,0000%00:00 (00:00)
192 Bloodsports.TV Mar 30, 2015 $2.4950% (80%/69%)50,000 .. 100,0000.83%00:01 (00:00)
193 Interplanetary May 12, 2015 N/A50% (80%)100,000 .. 200,0000%00:00 (00:00)
194 Legends of Callasia Jun 10, 2016 $3.7450% (80%)50,000 .. 100,0000%00:00 (00:00)
195 Anomaly Warzone Earth Mobile Campaign Nov 6, 2013 $0.9950% (80%)100,000 .. 200,0000%00:00 (00:00)
196 Gun Metal Sep 23, 2003 $1.0150% (80%)200,000 .. 500,0000.18%01:34 (00:31)
197 Run Rabbit Run Mar 31, 2016 $2.6750% (80%)0 .. 20,0000%00:00 (00:00)
198 Perimeter May 21, 2004 $0.9950% (80%/77%)20,000 .. 50,0000.8%00:19 (00:06)
199 Conquest of Elysium 3 Oct 24, 2012 $2.4950% (80%)20,000 .. 50,0000%00:00 (00:00)
200 Dominions 3: The Awakening Sep 10, 2013 $4.9950% (80%/82%)0 .. 20,0000%00:00 (00:00)
201 ROD: Revolt Of Defense Aug 12, 2016 $0.5950% (80%)20,000 .. 50,0000%00:00 (00:00)
202 Making History: The Calm & the Storm Mar 13, 2007 $0.7450% (80%/70%)50,000 .. 100,0000%00:00 (00:00)
203 Demolition Inc. Sep 19, 2011 $5.9950% (80%)50,000 .. 100,0000%00:00 (00:00)
204 Ninjahtic Jul 6, 2015 $0.7950% (80%)0 .. 20,0000%00:00 (00:00)
205 Supreme Ruler 2020 Gold Jul 9, 2009 $1.9950% (80%/65%)50,000 .. 100,0000%00:00 (00:00)
206 Afghanistan '11 Mar 23, 2017 $19.7950% (80%)0 .. 20,0000%00:00 (00:00)
207 Gatling Gears Aug 30, 2011 $9.9950% (80%)20,000 .. 50,0001.75%04:17 (01:25)
208 Monday Night Combat Jan 24, 2011 $0.7450% (80%/82%)200,000 .. 500,0000.4%00:46 (00:15)
209 Age of Gladiators Feb 25, 2016 $2.9950% (80%)20,000 .. 50,0000%00:00 (00:00)
210 7,62 High Calibre Aug 24, 2007 $1.2450% (80%)50,000 .. 100,0000%00:00 (00:00)
211 Defense Zone 3 Ultra HD Dec 14, 2016 $2.3947% (79%)0 .. 20,0000%00:00 (00:00)
212 Advent Rising Aug 9, 2005 $3.9947% (79%/70%)20,000 .. 50,0001.06%00:08 (00:02)
213 Ironcast Mar 26, 2015 $7.4947% (79%/75%)20,000 .. 50,0000%00:00 (00:00)
214 Star Wolves 3: Civil War Mar 2, 2010 $1.2447% (79%)100,000 .. 200,0000%00:00 (00:00)
215 Vietnam ‘65 Mar 5, 2015 $4.8947% (79%/81%)0 .. 20,0000%00:00 (00:00)
216 Battlezone Gold Edition May 11, 2017 $17.4947% (79%)0 .. 20,0000%00:00 (00:00)
217 Klang Sep 22, 2016 $3.7447% (79%/71%)0 .. 20,0000%00:00 (00:00)
218 Zombie Party Jun 10, 2016 $1.9947% (79%)100,000 .. 200,0002.22%03:10 (01:03)
219 Tiki Man Jun 4, 2015 $0.547% (79%)20,000 .. 50,0001.33%00:46 (00:30)
220 Locoland Nov 22, 2003 $0.4947% (79%)0 .. 20,0000%00:00 (00:00)
221 Protoshift Jan 15, 2016 $0.99N/A (N/A)0 .. 20,0000%00:00 (00:00)
222 Fortified Feb 3, 2016 $2.9947% (79%)500,000 .. 1,000,00033.59%04:06 (04:30)
223 TASTEE: Lethal Tactics May 10, 2016 $3.7447% (79%)20,000 .. 50,0001.59%01:38 (00:32)
224 Nuclear Dawn Sep 26, 2011 $1.7947% (79%/71%)200,000 .. 500,0001.07%03:03 (02:49)
225 Battle Mages: Sign of Darkness Apr 13, 2006 $0.4947% (79%)20,000 .. 50,0000%00:00 (00:00)
226 David. Mar 14, 2014 $0.5947% (79%)50,000 .. 100,0000.64%01:26 (00:28)
227 Envoy Mar 17, 2016 $0.4947% (79%)50,000 .. 100,0000%00:00 (00:00)
228 TRON RUN/r Feb 16, 2016 $5.9947% (79%)0 .. 20,00010%00:10 (00:03)
229 Caster Mar 19, 2009 $1.9947% (79%)200,000 .. 500,0000.47%01:44 (01:09)
230 Dead Rising 2: Off the Record Oct 11, 2011 $5.9946% (78%/66%)200,000 .. 500,0000.23%00:01 (00:00)
231 Pharaonic Apr 28, 2016 $3.7446% (78%)20,000 .. 50,0000%00:00 (00:00)
232 Deadly 30 Jan 8, 2014 $1.2446% (78%)100,000 .. 200,0000%00:00 (00:00)
233 Vector Strain Dec 9, 2015 $1.49N/A (N/A)20,000 .. 50,0000%00:00 (00:00)
234 Strike Suit Zero: Director's Cut Apr 8, 2014 $3.9946% (78%)20,000 .. 50,0000%00:00 (00:00)
235 Mold on Pizza Sep 25, 2015 $5.9946% (78%)0 .. 20,0000%00:00 (00:00)
236 Star Realms Mar 8, 2016 Free46% (78%)100,000 .. 200,0001.47%00:10 (00:03)
237 Zombie Killtime Aug 4, 2015 $1.99N/A (N/A)0 .. 20,0000%00:00 (00:00)
238 Umihara Kawase Shun: Steam Edition Nov 24, 2015 $5.99N/A (N/A)0 .. 20,0000%00:00 (00:00)
239 Making History II: The War of the World Aug 27, 2010 $7.4946% (78%/38%)20,000 .. 50,0002.17%05:04 (01:41)
240 Warhammer 40,000: Armageddon Nov 26, 2014 $9.5946% (78%/68%)20,000 .. 50,0005.88%05:02 (01:40)
241 The Legend of Dark Witch Dec 1, 2015 $2.4946% (78%)20,000 .. 50,0000%00:00 (00:00)
242 Tank Destroyer Mar 9, 2017 $0.546% (78%)20,000 .. 50,0000%00:00 (00:00)
243 Aeon Command Jul 3, 2014 $0.7446% (78%)20,000 .. 50,0000%00:00 (00:00)
244 King of Dragon Pass Jul 28, 2015 $3.5946% (78%)20,000 .. 50,0000.89%00:01 (00:00)
245 Mysterium: A Psychic Clue Game Jan 12, 2017 $9.9946% (78%)50,000 .. 100,0000%00:00 (00:00)
246 Starscape Nov 3, 2008 $1.9946% (78%)0 .. 20,0000%00:00 (00:00)
247 PAC-MAN and the Ghostly Adventures Oct 29, 2013 $4.9946% (78%)0 .. 20,0000%00:00 (00:00)
248 A.R.E.S. Extinction Agenda EX Oct 3, 2014 $1.9944% (77%)0 .. 20,0000%00:00 (00:00)
249 Bet On Soldier Sep 26, 2005 $1.9944% (77%)100,000 .. 200,0000%00:00 (00:00)
250 A Blind Legend Apr 7, 2016 $3.4944% (77%)0 .. 20,0000%00:00 (00:00)
251 Olympia Rising Jul 23, 2015 $4.99N/A (N/A)0 .. 20,0000%00:00 (00:00)
252 Curse of the Crescent Isle DX Aug 21, 2015 $1.5444% (77%)0 .. 20,0000%00:00 (00:00)
253 Heroes of Might & Magic V: Hammers of Fate Oct 10, 2008 $2.4944% (77%/66%)200,000 .. 500,0000%00:00 (00:00)
254 Dangerous Waters Feb 7, 2006 $2.9944% (77%/82%)50,000 .. 100,0000%00:00 (00:00)
255 Starchaser: Priestess of the Night Sky Jul 24, 2015 $3.29N/A (N/A)0 .. 20,0000%00:00 (00:00)
256 The Political Machine 2016 Feb 4, 2016 $4.9944% (77%)50,000 .. 100,0001.92%00:34 (00:22)
257 Sky Gamblers: Storm Raiders Jan 7, 2015 $3.3944% (77%)0 .. 20,0000%00:00 (00:00)
258 McDROID Sep 5, 2014 $9.9944% (77%)0 .. 20,0000%00:00 (00:00)
259 Star Hammer: The Vanguard Prophecy Jun 4, 2015 $4.9942% (76%/69%)0 .. 20,0000%00:00 (00:00)
260 Extravaganza Rising Jul 21, 2016 N/AN/A (N/A)20,000 .. 50,0000%00:00 (00:00)
261 BloodRayne Sep 9, 2003 $2.9942% (76%/65%)50,000 .. 100,0000%00:00 (00:00)
262 Spirits of Xanadu Mar 26, 2015 $0.9942% (76%)20,000 .. 50,0001.47%02:22 (00:47)
263 Deadlings: Rotten Edition Nov 11, 2014 $3.9942% (76%)50,000 .. 100,0000.66%00:08 (00:02)
264 Heroes of Arca Feb 16, 2017 Free42% (76%)0 .. 20,0000%00:00 (00:00)
265 Riddled Corpses Jun 2, 2015 $1.9942% (76%)20,000 .. 50,0003.9%49:44 (49:12)
266 Rocketbirds 2 Evolution Jan 26, 2017 $9.9942% (76%)20,000 .. 50,0000%00:00 (00:00)
267 Chaser Jul 16, 2010 $1.2442% (76%/66%)50,000 .. 100,0000%00:00 (00:00)
268 Fist Puncher Jun 21, 2013 $0.9942% (76%/73%)20,000 .. 50,0000%00:00 (00:00)
269 Corgi Warlock Dec 3, 2015 $0.4942% (76%)20,000 .. 50,0000%00:00 (00:00)
270 Victory At Sea Aug 8, 2014 $4.9942% (76%)20,000 .. 50,0000%00:00 (00:00)
271 Z Jul 4, 2014 $0.6942% (76%)100,000 .. 200,0003.08%04:32 (05:32)
272 Velocity 2X Aug 19, 2015 $4.99N/A (N/A)50,000 .. 100,0000%00:00 (00:00)
273 Cashtronauts Sep 1, 2016 $0.5N/A (N/A)0 .. 20,0000%00:00 (00:00)
274 Rocket Knight May 11, 2010 $14.9942% (76%/63%)0 .. 20,0000%00:00 (00:00)
275 Livelock Aug 30, 2016 $2.4942% (76%/73%)20,000 .. 50,0004.41%00:54 (00:54)
276 Warlords Battlecry III May 17, 2004 $5.9942% (76%/73%)0 .. 20,0000%00:00 (00:00)
277 Painkiller Hell & Damnation Oct 31, 2012 $4.9942% (76%/64%)500,000 .. 1,000,0000.98%01:43 (02:01)
278 GEARGUNS Tank offensive Sep 22, 2016 $1.5140% (75%)20,000 .. 50,0000%00:00 (00:00)
279 Albino Lullaby: Episode 1 Sep 15, 2015 $9.9940% (75%)20,000 .. 50,0000%00:00 (00:00)
280 Zoo Empire Aug 1, 2004 $1.74N/A (N/A/59%)0 .. 20,0000%00:00 (00:00)
281 Perimeter: Emperor's Testament Aug 29, 2006 $0.99N/A (N/A/72%)20,000 .. 50,0000%00:00 (00:00)
282 CivCity: Rome Jul 24, 2006 $2.4940% (75%/67%)50,000 .. 100,0000%00:00 (00:00)
283 Master Reboot Oct 29, 2013 $4.4940% (75%/59%)50,000 .. 100,0000%00:00 (00:00)
284 Commander: The Great War Nov 12, 2012 $9.8940% (75%)0 .. 20,0000%00:00 (00:00)
285 WARSHIFT Oct 12, 2016 $6.4940% (75%)20,000 .. 50,0000%00:00 (00:00)
286 FIVE: Champions of Canaan Sep 27, 2016 $0.99N/A (N/A)0 .. 20,0000%00:00 (00:00)
287 Pick a Hero Jun 9, 2016 $0.79N/A (N/A)0 .. 20,0000%00:00 (00:00)
288 Smell Of Death Jul 4, 2016 $9.9940% (75%)0 .. 20,0000%00:00 (00:00)
289 Civil War II Sep 17, 2013 $14.7940% (75%)0 .. 20,0000%00:00 (00:00)
290 Hunting Unlimited 2008 Jan 29, 2008 $3.49N/A (N/A)20,000 .. 50,0000%00:00 (00:00)
291 The Superfluous May 19, 2017 $1.24N/A (N/A)0 .. 20,0000%00:00 (00:00)
292 Onechanbara Z2: Chaos Jun 2, 2016 $19.9940% (75%)0 .. 20,0000%00:00 (00:00)
293 Monster Monpiece Mar 14, 2017 $3.9940% (75%)0 .. 20,0005.13%04:11 (02:47)
294 BossConstructor Oct 24, 2016 $7.4940% (75%)0 .. 20,0000%00:00 (00:00)
295 Othello Aug 5, 2016 $2.4940% (75%)0 .. 20,0000%00:00 (00:00)
296 AirMech Command Mar 8, 2017 $6.5940% (75%)0 .. 20,0000%00:00 (00:00)
297 Platformines Mar 28, 2014 $2.9940% (75%/67%)100,000 .. 200,0000%00:00 (00:00)
298 Ubersoldier II Jul 22, 2008 $1.4938% (74%/62%)100,000 .. 200,0000%00:00 (00:00)
299 Bubsy Two-Fur Jan 1, 1993 $1.9938% (74%)0 .. 20,0000%00:00 (00:00)
300 LEGO Indiana Jones 2: The Adventure Continues Feb 18, 2010 $6.7938% (74%/66%)50,000 .. 100,0002.33%05:49 (01:56)
301 Vampire of the Sands Jul 17, 2015 $0.4938% (74%)20,000 .. 50,0000%00:00 (00:00)
302 Making History: The Great War Jan 29, 2015 $14.9938% (74%)20,000 .. 50,0003.57%04:45 (01:35)
303 Banzai Escape Mar 16, 2016 $5.9938% (74%)0 .. 20,0000%00:00 (00:00)
304 Viktor Jun 13, 2014 $1.1938% (74%)20,000 .. 50,0000%00:00 (00:00)
305 Phoning Home Feb 7, 2017 $4.5938% (74%/61%)20,000 .. 50,0003.17%00:21 (00:14)
306 Divinity: Dragon Commander Aug 6, 2013 $3.9938% (74%)200,000 .. 500,0000.44%07:05 (02:21)
307 TableTop Soccer Apr 22, 2016 $0.9938% (74%)0 .. 20,0000%00:00 (00:00)
308 Battle Time Sep 29, 2016 $0.4938% (74%)50,000 .. 100,0000%00:00 (00:00)
309 FEIST Jul 23, 2015 $3.9938% (74%)20,000 .. 50,0000%00:00 (00:00)
310 Sid Meier’s Ace Patrol Aug 27, 2013 $1.2438% (74%)500,000 .. 1,000,0000.75%03:22 (02:50)
311 Distant Worlds: Universe May 23, 2014 $19.7938% (74%/81%)50,000 .. 100,0000%00:00 (00:00)
312 Rex Rocket Aug 5, 2014 $4.9936% (73%)20,000 .. 50,0000%00:00 (00:00)
313 VRZ: Torment Jun 9, 2016 $4.9936% (73%)0 .. 20,0000%00:00 (00:00)
314 Retrovirus Jan 31, 2013 $2.4936% (73%/70%)20,000 .. 50,0000%00:00 (00:00)
315 Cross of the Dutchman Sep 10, 2015 $3.1436% (73%/59%)20,000 .. 50,0001.75%00:40 (00:13)
316 The Aquatic Adventure of the Last Human Jan 19, 2016 $1.9936% (73%/76%)0 .. 20,0000%00:00 (00:00)
317 Alarameth TD Jun 23, 2015 $1.24N/A (N/A)0 .. 20,0000%00:00 (00:00)
318 Death by Game Show Jan 22, 2016 $4.9936% (73%)20,000 .. 50,0001.28%00:54 (00:18)
319 Supreme Ruler Ultimate Oct 17, 2014 $7.9936% (73%)20,000 .. 50,0000%00:00 (00:00)
320 Codex of Victory Mar 16, 2017 $3.7436% (73%)0 .. 20,0000%00:00 (00:00)
321 Tom Clancy's EndWar Feb 25, 2009 $3.3934% (72%/68%)50,000 .. 100,0000%00:00 (00:00)
322 There Came an Echo Feb 24, 2015 $5.9934% (72%/58%)20,000 .. 50,0000%00:00 (00:00)
323 Airship Dragoon Aug 26, 2014 $9.99N/A (N/A)0 .. 20,0000%00:00 (00:00)
324 Cast of the Seven Godsends - Redux Jul 20, 2015 $1.9934% (72%)20,000 .. 50,0000%00:00 (00:00)
325 Heaven Forest NIGHTS Mar 13, 2017 $0.99N/A (N/A)100,000 .. 200,0002.19%03:16 (01:03)
326 Smithy Jun 3, 2016 $0.51N/A (N/A)50,000 .. 100,0000%00:00 (00:00)
327 Battle Fleet 2 Nov 20, 2014 $5.2434% (72%)20,000 .. 50,0000%00:00 (00:00)
328 King Arthur - The Role-playing Wargame Nov 24, 2009 $2.4934% (72%)200,000 .. 500,0000%00:00 (00:00)
329 rooMaze Mar 3, 2017 $0.7934% (72%)100,000 .. 200,0000%00:00 (00:00)
330 Cuban Missile Crisis May 6, 2005 $1.2434% (72%)20,000 .. 50,0000%00:00 (00:00)
331 Deadnaut Nov 27, 2014 $4.9934% (72%)0 .. 20,0000%00:00 (00:00)
332 Wyv and Keep: The Temple of the Lost Idol Aug 8, 2014 $1.4934% (72%)20,000 .. 50,0001.61%03:18 (01:06)
333 Pike and Shot : Campaigns Aug 13, 2015 $9.9934% (72%)0 .. 20,0000%00:00 (00:00)
334 Lost Planet: Extreme Condition Jun 26, 2007 $2.9934% (72%/66%)200,000 .. 500,0000%00:00 (00:00)
335 Pongo May 14, 2015 $0.4934% (72%)50,000 .. 100,0000%00:00 (00:00)
336 Auro: A Monster-Bumping Adventure Apr 13, 2016 $4.8934% (72%)0 .. 20,0000%00:00 (00:00)
337 Civil War: Battle of Petersburg Feb 8, 2017 $0.49N/A (N/A)0 .. 20,0000%00:00 (00:00)
338 Lux Delux May 1, 2015 $3.0934% (72%)20,000 .. 50,0001.49%01:30 (00:30)
339 Sengoku Jidai: Shadow of the Shogun May 19, 2016 $14.6934% (72%/80%)0 .. 20,0000%00:00 (00:00)
340 Warp Mar 21, 2012 $2.4934% (72%)20,000 .. 50,0000%00:00 (00:00)
341 Rise & Shine Jan 13, 2017 $7.4934% (72%)20,000 .. 50,0000%00:00 (00:00)
342 Panzer Tactics HD May 22, 2014 $2.4934% (72%/69%)20,000 .. 50,0000%00:00 (00:00)
343 Gold Rush! Anniversary Nov 7, 2014 $2.99N/A (N/A)100,000 .. 200,0000.32%03:45 (01:15)
344 Hot Tin Roof: The Cat That Wore A Fedora Feb 20, 2015 $7.4934% (72%/66%)100,000 .. 200,0000%00:00 (00:00)
345 REDCON Apr 22, 2016 $5.9933% (71%)0 .. 20,0000%00:00 (00:00)
346 The Last Federation Apr 18, 2014 $4.9933% (71%/72%)50,000 .. 100,0000%00:00 (00:00)
347 Space Colony: Steam Edition Apr 30, 2015 $2.9933% (71%/74%)20,000 .. 50,0001.89%00:36 (00:12)
348 A.R.E.S.: Extinction Agenda Jan 19, 2011 $0.9933% (71%/68%)100,000 .. 200,0000%00:00 (00:00)
349 Zombie Camp Aug 1, 2016 $1.99N/A (N/A)0 .. 20,0000%00:00 (00:00)
350 Disney Planes Aug 6, 2013 $5.99N/A (N/A)0 .. 20,0000%00:00 (00:00)
351 Little King's Story Aug 5, 2016 $4.9933% (71%/62%)0 .. 20,0000%00:00 (00:00)
352 Elven Legacy Apr 7, 2009 $1.2433% (71%/71%)50,000 .. 100,0000%00:00 (00:00)
353 Elliot Quest Nov 10, 2014 $9.9933% (71%)20,000 .. 50,0000%00:00 (00:00)
354 Revolution Under Siege Gold Jul 2, 2015 $6.2433% (71%)0 .. 20,0000%00:00 (00:00)
355 BitMaster Oct 12, 2016 $0.8931% (70%)100,000 .. 200,0000.16%00:02 (00:00)
356 Jagged Alliance 2 - Wildfire Nov 16, 2012 $1.3931% (70%)200,000 .. 500,0001.58%05:29 (06:08)
357 Wildlife Park 2 - Crazy Zoo Mar 30, 2007 $2.79N/A (N/A)0 .. 20,0000%00:00 (00:00)
358 Alea Jacta Est Sep 27, 2012 $9.74N/A (N/A)20,000 .. 50,0000%00:00 (00:00)
359 Pigmentone Jul 8, 2016 $0.49N/A (N/A)0 .. 20,0000%00:00 (00:00)
360 Sol 0: Mars Colonization Jan 15, 2016 $3.9930% (69%)20,000 .. 50,0000%00:00 (00:00)
361 Scourge of War: Waterloo Nov 19, 2015 $19.4930% (69%)0 .. 20,0000%00:00 (00:00)
362 Warrior Kings Apr 13, 2002 $1.4930% (69%/73%)20,000 .. 50,0000%00:00 (00:00)
363 The Nightmare Cooperative Jul 16, 2014 $1.2430% (69%)50,000 .. 100,0000%00:00 (00:00)
364 Strategy & Tactics: Wargame Collection Apr 22, 2016 $2.4930% (69%)20,000 .. 50,0001.01%02:25 (00:48)
365 Incandescent Jun 30, 2015 $0.4930% (69%)20,000 .. 50,0000.63%01:19 (00:26)
366 Brigade E5: New Jagged Union Oct 17, 2006 $0.9930% (69%/41%)0 .. 20,0000%00:00 (00:00)
367 YAIBA: NINJA GAIDEN Z Mar 21, 2014 $5.9930% (69%/49%)20,000 .. 50,0000%00:00 (00:00)
368 RISK: Factions Mar 8, 2011 $2.4930% (69%/77%)50,000 .. 100,0003.03%01:04 (00:21)
369 Guns n Zombies Oct 30, 2014 $0.7930% (69%)100,000 .. 200,0000.59%02:00 (00:40)
370 FIVE: Guardians of David Nov 24, 2015 $2.4930% (69%/66%)20,000 .. 50,0000%00:00 (00:00)
371 1775: Rebellion Sep 29, 2016 $24.99N/A (N/A)0 .. 20,0000%00:00 (00:00)
372 Quick Slick Deadly Sep 21, 2015 $0.49N/A (N/A)20,000 .. 50,0001.12%02:03 (00:41)
373 Collapse Sep 25, 2008 $1.9930% (69%)50,000 .. 100,0001.69%00:01 (00:00)
374 UnSummoning: the Spectral Horde Dec 21, 2015 $3.99N/A (N/A)0 .. 20,0000%00:00 (00:00)
375 Toy Odyssey: The Lost and Found Sep 20, 2016 $7.4928% (68%/66%)50,000 .. 100,0001.67%04:25 (04:14)
376 Space Food Truck Mar 25, 2016 $2.4928% (68%)0 .. 20,0000%00:00 (00:00)
377 Survivor Squad: Gauntlets Nov 16, 2015 $0.9928% (68%)20,000 .. 50,0000%00:00 (00:00)
378 Stonerid Dec 18, 2013 $0.4928% (68%)20,000 .. 50,0000%00:00 (00:00)
379 Theatre of War 2: Africa 1943 Jul 9, 2010 $1.2428% (68%/63%)100,000 .. 200,0000%00:00 (00:00)
380 The Hive Aug 25, 2016 $4.9928% (68%)20,000 .. 50,0000%00:00 (00:00)
381 Fair Strike Feb 5, 2004 $0.51N/A (N/A/56%)0 .. 20,0000%00:00 (00:00)
382 Warhammer 40,000: Armageddon - Da Orks Aug 18, 2016 $11.79N/A (N/A)0 .. 20,0000%00:00 (00:00)
383 Toren May 11, 2015 $2.4928% (68%/57%)50,000 .. 100,0000%00:00 (00:00)
384 Zombie City Defense 2 Aug 19, 2016 $2.7928% (68%)0 .. 20,0000%00:00 (00:00)
385 ManaCollect Apr 17, 2015 $1.74N/A (N/A)0 .. 20,0003.23%05:20 (01:46)
386 Bedlam Oct 13, 2015 $1.2927% (67%/54%)100,000 .. 200,0000.44%02:01 (00:40)
387 Chainsaw Warrior Oct 7, 2013 $1.2427% (67%)100,000 .. 200,0000%00:00 (00:00)
388 Mad Combat Marines Jul 13, 2016 $0.4927% (67%)20,000 .. 50,0000%00:00 (00:00)
389 Kill The Plumber Dec 31, 2015 $4.9927% (67%)0 .. 20,0000%00:00 (00:00)
390 7th Legion Jan 1, 1997 $1.74N/A (N/A)20,000 .. 50,0000%00:00 (00:00)
391 Zafehouse: Diaries Sep 6, 2013 $0.9927% (67%)50,000 .. 100,0000%00:00 (00:00)
392 Nomad Fleet Jul 14, 2015 $0.9927% (67%)20,000 .. 50,0000%00:00 (00:00)
393 March of the Eagles Feb 18, 2013 $4.9925% (66%/71%)50,000 .. 100,0001.41%02:05 (00:41)
394 1849 May 8, 2014 $5.9925% (66%)20,000 .. 50,0000%00:00 (00:00)
395 Royal Defense Nov 6, 2014 $0.4925% (66%)50,000 .. 100,0000.46%02:54 (00:58)
396 Commander Cool 2 Dec 17, 2015 $0.8625% (66%)20,000 .. 50,0002.6%00:20 (00:11)
397 The Living Dungeon Nov 2, 2015 $4.4125% (66%)0 .. 20,0000%00:00 (00:00)
398 Sky To Fly: Faster Than Wind Mar 25, 2016 $2.9925% (66%)0 .. 20,0000%00:00 (00:00)
399 Men of War: Condemned Heroes Apr 12, 2012 $1.9925% (66%/57%)100,000 .. 200,0000%00:00 (00:00)
400 Sengoku Sep 15, 2011 $2.4925% (66%/70%)100,000 .. 200,0000.87%16:28 (05:29)
401 Platypus II Mar 17, 2007 $0.6925% (66%)200,000 .. 500,0000.7%01:33 (01:53)
402 Scourge: Outbreak Apr 2, 2014 $7.9925% (66%)100,000 .. 200,0000.57%02:07 (00:42)
403 Ground Breakers Jun 15, 2016 $2.49N/A (N/A)0 .. 20,0000%00:00 (00:00)
404 Theatre of War 2: Kursk 1943 Jul 9, 2010 $1.2424% (65%)50,000 .. 100,0000%00:00 (00:00)
405 Frozen Synapse Prime Nov 14, 2014 $2.4924% (65%/83%)100,000 .. 200,0000%00:00 (00:00)
406 Spirit of War Mar 12, 2015 $9.99N/A (N/A)0 .. 20,0000%00:00 (00:00)
407 Hunters Of The Dead Sep 4, 2014 $0.7424% (65%)20,000 .. 50,0000%00:00 (00:00)
408 Zombie Tycoon 2: Brainhov's Revenge Dec 9, 2013 $1.2424% (65%)50,000 .. 100,0000%00:00 (00:00)
409 Devil's Dare 悪魔の挑戦 Oct 21, 2014 $12.9924% (65%)20,000 .. 50,0000%00:00 (00:00)
410 Marauder Sep 10, 2009 $0.9924% (65%)50,000 .. 100,0000%00:00 (00:00)
411 Malebolgia May 6, 2015 $2.5924% (65%)0 .. 20,0000%00:00 (00:00)
412 8-Bit Commando Jul 27, 2011 $1.79N/A (N/A)50,000 .. 100,0000%00:00 (00:00)
413 Infinity Runner Jul 14, 2014 $2.7924% (65%/56%)0 .. 20,0000%00:00 (00:00)
414 Assassin’s Creed Chronicles: India Jan 12, 2016 $3.3924% (65%)20,000 .. 50,0000%00:00 (00:00)
415 Link Apr 22, 2016 $4.99N/A (N/A)0 .. 20,0000%00:00 (00:00)
416 A Game of Dwarves Oct 23, 2012 $2.4923% (64%/60%)50,000 .. 100,0000%00:00 (00:00)
417 Battle Worlds: Kronos Nov 4, 2013 $4.9923% (64%/71%)20,000 .. 50,0000%00:00 (00:00)
418 Disney Pirates of the Caribbean: At Worlds End May 22, 2007 $5.9923% (64%)0 .. 20,0000%00:00 (00:00)
419 Double Dragon IV Jan 30, 2017 $3.4923% (64%/50%)0 .. 20,0000%00:00 (00:00)
420 Urban Pirate Jun 17, 2016 $1.74N/A (N/A)0 .. 20,0000%00:00 (00:00)
421 Zoo Rampage Jul 9, 2014 $3.9923% (64%)0 .. 20,0000%00:00 (00:00)
422 Kaiju-A-GoGo Apr 23, 2015 $2.4923% (64%)20,000 .. 50,0002.04%01:49 (00:36)
423 SPACECOM Sep 17, 2014 $1.9923% (64%/68%)100,000 .. 200,0000.37%02:03 (00:41)
424 Rise: Battle Lines Nov 17, 2015 $0.4923% (64%)0 .. 20,0000%00:00 (00:00)
425 Beasts Battle Jun 15, 2016 $1.59N/A (N/A)0 .. 20,0000%00:00 (00:00)
426 Jagged Alliance: Crossfire Aug 24, 2012 $2.9923% (64%/63%)100,000 .. 200,0000%00:00 (00:00)
427 Desert Ashes Nov 10, 2014 $4.99N/A (N/A)20,000 .. 50,0000%00:00 (00:00)
428 The Seven Years War (1756-1763) Oct 30, 2015 $6.9923% (64%)0 .. 20,0000%00:00 (00:00)
429 Warlock 2: The Exiled Apr 10, 2014 $4.9923% (64%/73%)50,000 .. 100,0000%00:00 (00:00)
430 Crazy Forest Jul 6, 2016 $0.49N/A (N/A)100,000 .. 200,0000.41%00:01 (00:00)
431 Pixel Boy and the Ever Expanding Dungeon May 30, 2014 $0.9922% (63%)20,000 .. 50,0000%00:00 (00:00)
432 Will Fight for Food: Super Actual Sellout: Game of the Hour Apr 22, 2015 $1.1922% (63%)0 .. 20,0001.72%03:55 (01:18)
433 War, the Game Jan 12, 2015 $6.9922% (63%/65%)20,000 .. 50,0000%00:00 (00:00)
434 Hyperspace Pinball Sep 30, 2015 $2.99N/A (N/A)0 .. 20,0000%00:00 (00:00)
435 Port Royale 2 Jun 16, 2009 $0.9921% (62%/75%)50,000 .. 100,0000%00:00 (00:00)
436 Disney Epic Mickey 2: The Power of Two Nov 18, 2012 $9.9921% (62%)20,000 .. 50,0000%00:00 (00:00)
437 My Super Tower 2 Jan 27, 2017 $0.49N/A (N/A)0 .. 20,0000%00:00 (00:00)
438 Flashback Oct 1, 2013 $3.3921% (62%)20,000 .. 50,0006.25%06:51 (02:17)
439 Freight Tycoon Inc. Aug 15, 2007 $1.2421% (62%)20,000 .. 50,0003.45%00:15 (00:05)
440 4089: Ghost Within Jan 9, 2015 $1.7921% (62%)0 .. 20,0000%00:00 (00:00)
441 Battleplan: American Civil War Jul 4, 2014 $1.4921% (62%/66%)100,000 .. 200,0000.23%00:01 (00:00)
442 Goblin Defenders: Steel‘n’ Wood Aug 21, 2013 $1.0421% (62%)20,000 .. 50,0003.8%03:10 (02:36)
443 Sorcerer King: Rivals Sep 22, 2016 $6.7421% (62%)20,000 .. 50,0000%00:00 (00:00)
444 Bombshell Jan 29, 2016 $34.9921% (62%)0 .. 20,0000%00:00 (00:00)
445 Supreme Ruler: Cold War Jul 29, 2011 $1.9921% (62%/63%)20,000 .. 50,0000%00:00 (00:00)
446 The Few Jun 18, 2014 $7.9921% (62%)20,000 .. 50,0000%00:00 (00:00)
447 E.T. Armies Mar 3, 2016 $2.2420% (61%/54%)0 .. 20,0000%00:00 (00:00)
448 Men of War: Vietnam Sep 8, 2011 $1.9920% (61%/68%)100,000 .. 200,0000%00:00 (00:00)
449 To End All Wars Aug 29, 2014 $11.9920% (61%/71%)0 .. 20,0000%00:00 (00:00)
450 Purgatory Jun 22, 2016 $0.4920% (61%)200,000 .. 500,0000.15%01:50 (01:13)
451 Call of Duty: Black Ops - Mac Edition Sep 27, 2012 $19.9920% (61%)50,000 .. 100,0000%00:00 (00:00)
452 Spice Road Apr 24, 2014 $3.9920% (61%)0 .. 20,0000%00:00 (00:00)
453 Eclipse: New Dawn for the Galaxy Sep 16, 2016 N/A20% (61%)0 .. 20,0000%00:00 (00:00)
454 Gnumz: Masters of Defense Dec 21, 2015 $0.4920% (61%)20,000 .. 50,0003.11%02:36 (03:48)
455 Legions of Steel Jul 16, 2015 $4.99N/A (N/A/64%)0 .. 20,0000%00:00 (00:00)
456 Hybrid Wars Sep 29, 2016 $7.1918% (60%/54%)0 .. 20,0000%00:00 (00:00)
457 Code of Princess Apr 14, 2016 $5.9918% (60%/53%)0 .. 20,0000%00:00 (00:00)
458 Overruled! Sep 15, 2015 $3.2418% (60%)20,000 .. 50,0000%00:00 (00:00)
459 Cemetery Warrior 3 Feb 3, 2017 $0.4918% (60%)50,000 .. 100,0000%00:00 (00:00)
460 Patrician IV - Steam Special Edition Sep 17, 2010 $3.7418% (60%/66%)100,000 .. 200,0000%00:00 (00:00)
461 Skyshine's BEDLAM Sep 16, 2015 $4.9918% (60%/67%)20,000 .. 50,0001.75%08:33 (02:51)
462 Woolfe - The Red Hood Diaries Mar 17, 2015 $3.3918% (60%/55%)50,000 .. 100,0002.22%00:42 (00:28)
463 Disciples III - Renaissance Steam Special Edition Jul 16, 2010 $3.7418% (60%/56%)100,000 .. 200,0000%00:00 (00:00)
464 Close Combat - Panthers in the Fog Nov 19, 2012 $9.9918% (60%)0 .. 20,0000%00:00 (00:00)
465 Stay Dead Evolution Feb 4, 2015 $1.01N/A (N/A)20,000 .. 50,0000%00:00 (00:00)
466 Grim Seventh Jan 20, 2017 FreeN/A (N/A)0 .. 20,0000%00:00 (00:00)
467 NOBUNAGA'S AMBITION: Sphere of Influence - Ascension / 信長の野望・創造 戦国立志伝 Mar 23, 2016 $23.9917% (59%)50,000 .. 100,0000%00:00 (00:00)
468 VR Journey Dec 15, 2016 $0.5N/A (N/A)20,000 .. 50,0000%00:00 (00:00)
469 Ninjahtic Mind Tricks Jul 16, 2015 $0.79N/A (N/A)0 .. 20,0000%00:00 (00:00)
470 Check vs Mate Aug 16, 2012 $2.9917% (59%/69%)0 .. 20,0000%00:00 (00:00)
471 Colonial Conquest Jul 28, 2015 $3.9917% (59%)0 .. 20,0000%00:00 (00:00)
472 Super Helmets on Fire DX Ultra Edition Plus Alpha Feb 15, 2016 $0.99N/A (N/A)0 .. 20,0002.5%00:30 (00:10)
473 Life in Bunker Feb 25, 2016 $7.9917% (59%)0 .. 20,0000%00:00 (00:00)
474 Antisquad Oct 31, 2014 $5.9917% (59%)50,000 .. 100,0000%00:00 (00:00)
475 Armada 2526 Gold Edition Feb 28, 2013 $3.5917% (59%/66%)20,000 .. 50,0000%00:00 (00:00)
476 Woodle Tree 2: Worlds Sep 16, 2016 $1.5917% (59%)50,000 .. 100,0002.44%05:12 (03:31)
477 Prospekt Feb 18, 2016 $2.4917% (59%)20,000 .. 50,0007.14%72:31 (24:10)
478 7 Grand Steps: What Ancients Begat Jun 7, 2013 $11.9917% (59%)100,000 .. 200,0000%00:00 (00:00)
479 Quarantine Feb 9, 2017 $2.9917% (59%)0 .. 20,0000%00:00 (00:00)
480 Merchants of Kaidan Nov 10, 2014 $1.4917% (59%)100,000 .. 200,0002.54%05:39 (08:09)
481 DreamBreak Jul 21, 2016 $2.3716% (58%/46%)0 .. 20,0000%00:00 (00:00)
482 Adventure World Aug 2, 2016 $4.99N/A (N/A)0 .. 20,0000%00:00 (00:00)
483 Dawn of Andromeda May 4, 2017 $10.1916% (58%/70%)0 .. 20,0000%00:00 (00:00)
484 Wanderlust Adventures Aug 10, 2015 $1.4916% (58%)20,000 .. 50,0000%00:00 (00:00)
485 Sir! I'd Like To Report A Bug! Oct 19, 2015 $0.79N/A (N/A)0 .. 20,0000%00:00 (00:00)
486 Prophour23 Oct 22, 2014 $2.4916% (58%)0 .. 20,0000%00:00 (00:00)
487 Ceres Oct 16, 2015 $3.9916% (58%/74%)0 .. 20,0000%00:00 (00:00)
488 Heavy Fire: Afghanistan Aug 15, 2014 $0.9815% (57%)20,000 .. 50,0000%00:00 (00:00)
489 Assault on Arnhem Mar 11, 2016 $9.99N/A (N/A)0 .. 20,0000%00:00 (00:00)
490 Unearthed: Trail of Ibn Battuta - Episode 1 - Gold Edition Jan 3, 2014 $1.2415% (57%)20,000 .. 50,0000%00:00 (00:00)
491 Defend Your Crypt Jul 21, 2016 $1.49N/A (N/A)0 .. 20,0004.76%02:30 (00:50)
492 Rise of Venice Sep 27, 2013 $4.9915% (57%/66%)50,000 .. 100,0000%00:00 (00:00)
493 Gates of Horizon Dec 18, 2014 $1.9915% (57%)0 .. 20,0000%00:00 (00:00)
494 Delve Deeper Sep 24, 2010 $4.9914% (56%)50,000 .. 100,0000%00:00 (00:00)
495 reconquest Dec 16, 2016 $4.7914% (56%)0 .. 20,0000%00:00 (00:00)
496 Abalone Apr 23, 2014 $4.9914% (56%)0 .. 20,0000%00:00 (00:00)
497 Horizon Feb 6, 2014 $5.9914% (56%)50,000 .. 100,0000%00:00 (00:00)
498 BC Kings Jun 16, 2009 $0.9914% (55%)20,000 .. 50,0000%00:00 (00:00)
499 Gettysburg: The Tide Turns Jul 14, 2017 $4.89N/A (N/A)0 .. 20,0000%00:00 (00:00)
500 Pain Train Jan 11, 2017 $0.4914% (55%)50,000 .. 100,0001.77%02:19 (00:58)
501 Sovereignty: Crown of Kings Feb 2, 2017 $6.2414% (55%)0 .. 20,0000%00:00 (00:00)
502 Tic-Toc-Tower Sep 28, 2015 $0.5N/A (N/A)0 .. 20,0000%00:00 (00:00)
503 Crusaders: Thy Kingdom Come Oct 8, 2009 $2.49N/A (N/A)20,000 .. 50,0000%00:00 (00:00)
504 Wickland Nov 14, 2014 $0.4913% (54%)50,000 .. 100,0000.52%02:27 (00:49)
505 Urja Jan 9, 2015 $9.9912% (53%)20,000 .. 50,0000%00:00 (00:00)
506 Smugglers 5 Apr 11, 2014 $3.9912% (53%)20,000 .. 50,0000%00:00 (00:00)
507 Defence to death May 11, 2017 $0.57N/A (N/A)50,000 .. 100,0000%00:00 (00:00)
508 RESCUE 2: Everyday Heroes Jun 3, 2015 $3.9912% (53%)20,000 .. 50,0000%00:00 (00:00)
509 Armada 2526 Apr 8, 2011 $2.69N/A (N/A/66%)0 .. 20,0000%00:00 (00:00)
510 Story Of the Survivor Feb 17, 2016 $2.49N/A (N/A)50,000 .. 100,0000%00:00 (00:00)
511 Nightside Apr 2, 2015 $0.9912% (53%)20,000 .. 50,0000%00:00 (00:00)
512 Scapeland Mar 31, 2016 $0.5112% (52%)0 .. 20,0000%00:00 (00:00)
513 Meridian: New World Apr 4, 2014 $1.3912% (52%/43%)50,000 .. 100,0000%00:00 (00:00)
514 The Campaign Series: Fall Weiss May 30, 2014 $2.24N/A (N/A)20,000 .. 50,0001.61%05:03 (01:41)
515 Royal Bounty HD Aug 10, 2015 $2.9912% (52%)0 .. 20,0000%00:00 (00:00)
516 The Stalin Subway Oct 5, 2006 $0.5112% (52%)20,000 .. 50,0000%00:00 (00:00)
517 Castle Werewolf 3D Feb 7, 2017 $0.5N/A (N/A)50,000 .. 100,0000%00:00 (00:00)
518 MinosMaze - The Minotaur's Labyrinth May 1, 2017 $0.49N/A (N/A)0 .. 20,0000%00:00 (00:00)
519 Guncraft Aug 9, 2013 $2.2411% (51%/73%)100,000 .. 200,0000%00:00 (00:00)
520 Biodrone Battle Jul 16, 2015 $0.4911% (51%)100,000 .. 200,0000%00:00 (00:00)
521 MDK2 HD Jul 30, 2012 $7.4911% (51%/73%)0 .. 20,0000%00:00 (00:00)
522 Dusty Revenge:Co-Op Edition Feb 17, 2014 $4.9411% (51%)50,000 .. 100,0000%00:00 (00:00)
523 PeriAreion Feb 19, 2015 $5.99N/A (N/A)0 .. 20,0000%00:00 (00:00)
524 Weather Lord: The Successor's Path Apr 8, 2015 $0.49N/A (N/A)0 .. 20,0000%00:00 (00:00)
525 Aegis Oct 6, 2016 $0.92N/A (N/A)0 .. 20,0000%00:00 (00:00)
526 Odd||Even Apr 6, 2016 $0.49N/A (N/A)20,000 .. 50,0000%00:00 (00:00)
527 No Pineapple Left Behind Feb 18, 2016 $1.74N/A (N/A/59%)0 .. 20,0000%00:00 (00:00)
528 Albedo: Eyes from Outer Space Apr 10, 2015 $1.4910% (50%/66%)50,000 .. 100,0000%00:00 (00:00)
529 Marvel: Ultimate Alliance 2 Jul 26, 2016 $15.9910% (50%)0 .. 20,0009.52%06:24 (04:15)
530 Kidnapped Aug 4, 2015 $0.7710% (49%)100,000 .. 200,0000.59%00:39 (00:26)
531 Synonymy Dec 12, 2014 $0.49N/A (N/A)0 .. 20,0000%00:00 (00:00)
532 Rubber and Lead Sep 4, 2015 $4.999% (48%)20,000 .. 50,0001.71%02:04 (01:22)
533 Z Steel Soldiers Aug 1, 2014 $1.299% (48%)50,000 .. 100,0001.04%03:18 (02:11)
534 Meridian: Squad 22 Aug 11, 2016 $2.999% (48%)0 .. 20,0000%00:00 (00:00)
535 Aggression: Europe Under Fire May 10, 2007 $0.999% (48%)50,000 .. 100,0000%00:00 (00:00)
536 Hero Generations Apr 10, 2015 $0.899% (47%)0 .. 20,0000%00:00 (00:00)
537 Island Defense Jul 23, 2015 $1.999% (47%)50,000 .. 100,0000%00:00 (00:00)
538 ALONE IN SPACE Feb 27, 2016 $9.999% (47%)0 .. 20,0000%00:00 (00:00)
539 Star Traders: 4X Empires Nov 18, 2014 $4.99N/A (N/A)0 .. 20,0000%00:00 (00:00)
540 Blasting Agent: Ultimate Edition Aug 17, 2016 $2.99N/A (N/A)0 .. 20,0000%00:00 (00:00)
541 Crossfire: Dungeons Jan 15, 2007 $0.519% (47%)0 .. 20,0000%00:00 (00:00)
542 Disposable Heroes Oct 1, 2015 $0.499% (47%)0 .. 20,0005.56%02:16 (01:30)
543 Magic Quest May 6, 2016 $1.99N/A (N/A)50,000 .. 100,0000%00:00 (00:00)
544 Redemption: Saints And Sinners Nov 18, 2016 $0.498% (46%)50,000 .. 100,0001.32%01:42 (02:08)
545 The Stalin Subway: Red Veil Oct 5, 2006 $0.58% (46%)50,000 .. 100,0000%00:00 (00:00)
546 Megamagic: Wizards of the Neon Age Apr 20, 2016 $2.99N/A (N/A/67%)20,000 .. 50,0004.17%01:01 (00:50)
547 Battle Chess: Game of Kings Dec 11, 2015 $14.998% (45%)0 .. 20,0000%00:00 (00:00)
548 World War 2: Time of Wrath Jun 15, 2009 $0.99N/A (N/A)20,000 .. 50,0000%00:00 (00:00)
549 Chronostorm: Siberian Border Apr 2, 2009 $0.49N/A (N/A)0 .. 20,0000%00:00 (00:00)
550 Impire Feb 14, 2013 $4.998% (45%/45%)100,000 .. 200,0000%00:00 (00:00)
551 Carrier Command: Gaea Mission Sep 28, 2012 $6.598% (45%/60%)200,000 .. 500,0000.63%00:09 (00:03)
552 Hell Nov 13, 2014 $4.79N/A (N/A)0 .. 20,0000%00:00 (00:00)
553 HitBox Jan 30, 2017 Free8% (45%)0 .. 20,0000%00:00 (00:00)
554 The Bluecoats: North vs South May 10, 2012 $0.998% (45%)50,000 .. 100,0000%00:00 (00:00)
555 Commander: Conquest of the Americas Jul 30, 2010 $9.998% (45%/68%)50,000 .. 100,0000%00:00 (00:00)
556 DUNGEONS - Steam Special Edition Feb 10, 2011 $1.997% (44%/65%)200,000 .. 500,0000%00:00 (00:00)
557 Skyward Collapse May 23, 2013 $1.247% (44%/64%)100,000 .. 200,0000%00:00 (00:00)
558 Pride of Nations Jun 7, 2011 $4.797% (44%/70%)20,000 .. 50,0000%00:00 (00:00)
559 Nux Dec 26, 2006 $0.697% (44%)100,000 .. 200,0000.86%01:24 (02:03)
560 Vendetta - Curse of Raven's Cry Nov 20, 2015 $9.897% (43%)0 .. 20,00010.53%07:08 (02:31)
561 Samudai Feb 9, 2015 $2.99N/A (N/A)20,000 .. 50,0000%00:00 (00:00)
562 Burstfire Sep 24, 2015 N/A7% (42%)50,000 .. 100,0000%00:00 (00:00)
563 Sword of the Stars II: Enhanced Edition Nov 30, 2012 $4.997% (42%/65%)100,000 .. 200,0000%00:00 (00:00)
564 The Entente Gold Aug 11, 2003 $0.497% (42%)50,000 .. 100,0000%00:00 (00:00)
565 Rulers of Nations Jul 16, 2014 $9.996% (41%/63%)0 .. 20,0000%00:00 (00:00)
566 Lost in Paradise Aug 20, 2015 $0.98N/A (N/A)20,000 .. 50,0000%00:00 (00:00)
567 Hydraulic Empire Jul 31, 2015 $1.996% (41%)0 .. 20,0000%00:00 (00:00)
568 Infection: Humanity's Last Gasp May 26, 2016 $9.99N/A (N/A)0 .. 20,0000%00:00 (00:00)
569 R.I.P.D.: The Game Jul 16, 2013 $1.996% (40%)20,000 .. 50,0000%00:00 (00:00)
570 Strategic War in Europe Mar 21, 2014 $2.246% (40%)20,000 .. 50,0001.18%06:33 (02:11)
571 Dead But Alive! Southern England Oct 2, 2015 $5.996% (40%)0 .. 20,0004.44%03:01 (02:00)
572 The Kings' Crusade Oct 8, 2010 $2.496% (40%/71%)50,000 .. 100,0000%00:00 (00:00)
573 Pain Train 2 Mar 16, 2017 $0.696% (40%)0 .. 20,0005.71%03:07 (01:34)
574 Devils & Demons Oct 6, 2015 $2.496% (40%)20,000 .. 50,0000%00:00 (00:00)
575 Heavy Fire: Shattered Spear Oct 23, 2015 $0.95N/A (N/A)0 .. 20,0000%00:00 (00:00)
576 Zombie Apocalypse: Escape The Undead City Nov 25, 2013 $0.5N/A (N/A)0 .. 20,0000%00:00 (00:00)
577 Dungeons - The Dark Lord Sep 27, 2011 $3.995% (39%/72%)100,000 .. 200,0000%00:00 (00:00)
578 Wave of Darkness Nov 5, 2015 $8.99N/A (N/A)0 .. 20,0000%00:00 (00:00)
579 Control Craft 2 Feb 15, 2016 $0.5N/A (N/A)0 .. 20,0000%00:00 (00:00)
580 Dark Matter Oct 17, 2013 $1.795% (39%)0 .. 20,0000%00:00 (00:00)
581 Mechs & Mercs: Black Talons Jan 9, 2015 $1.995% (38%)0 .. 20,0000%00:00 (00:00)
582 Risk Jun 10, 2013 $2.495% (38%)20,000 .. 50,0000%00:00 (00:00)
583 Tiamat X May 29, 2015 $0.495% (38%)50,000 .. 100,0000%00:00 (00:00)
584 Gratuitous Space Battles 2 Apr 16, 2015 $2.495% (38%)20,000 .. 50,0000%00:00 (00:00)
585 Stellar Impact Apr 12, 2012 $9.995% (37%/74%)50,000 .. 100,0002.17%05:03 (01:41)
586 Knight Adventure Oct 15, 2015 $0.99N/A (N/A)50,000 .. 100,0009.43%04:17 (04:32)
587 Kick-Ass 2 Aug 15, 2014 $4.994% (36%)0 .. 20,0000%00:00 (00:00)
588 Blue Sheep Mar 31, 2016 $1.99N/A (N/A)0 .. 20,0000%00:00 (00:00)
589 Urban Empire Jan 20, 2017 $7.494% (35%/62%)50,000 .. 100,0000%00:00 (00:00)
590 Shadows of War Sep 19, 2014 $0.594% (35%)20,000 .. 50,0000.8%00:01 (00:00)
591 CTU: Counter Terrorism Unit Apr 22, 2016 $2.99N/A (N/A)0 .. 20,0000%00:00 (00:00)
592 Into the Void Dec 4, 2015 $4.994% (34%)20,000 .. 50,0000%00:00 (00:00)
593 Fallen: A2P Protocol Aug 14, 2015 $9.994% (34%)20,000 .. 50,0009.09%00:04 (00:01)
594 Arma Tactics Oct 1, 2013 $1.794% (34%/47%)200,000 .. 500,0001.79%01:41 (01:39)
595 Ranger of the jungle Jul 16, 2016 $1.19N/A (N/A)0 .. 20,0000%00:00 (00:00)
596 Jagged Alliance Flashback Oct 21, 2014 $3.994% (33%)20,000 .. 50,0000%00:00 (00:00)
597 Sim Junta Aug 18, 2015 $0.494% (33%)0 .. 20,0000%00:00 (00:00)
598 Disciples III - Resurrection Oct 11, 2011 $3.743% (32%/63%)100,000 .. 200,0000%00:00 (00:00)
599 Zombie Zoeds May 20, 2015 $2.993% (31%)200,000 .. 500,0000.44%00:01 (00:00)
600 Psichodelya Aug 8, 2014 $0.993% (31%)100,000 .. 200,0000%00:00 (00:00)
601 Ground Pounders Jul 15, 2014 $2.49N/A (N/A)0 .. 20,0000%00:00 (00:00)
602 Evopollution Apr 23, 2014 $4.993% (31%)0 .. 20,0000%00:00 (00:00)
603 A Game of Thrones - Genesis Sep 28, 2011 $9.993% (31%)100,000 .. 200,0000%00:00 (00:00)
604 Robotex Nov 18, 2014 $0.493% (31%)100,000 .. 200,0000.38%02:03 (00:41)
605 Ku: Shroud of the Morrigan Mar 17, 2014 $4.993% (31%)20,000 .. 50,0000%00:00 (00:00)
606 Defenders of Time Nov 4, 2014 N/AN/A (N/A/55%)0 .. 20,0000%00:00 (00:00)
607 Power of Defense Aug 4, 2010 $9.99N/A (N/A)0 .. 20,0000%00:00 (00:00)
608 Tank Operations: European Campaign Nov 22, 2013 $4.493% (30%)20,000 .. 50,0000%00:00 (00:00)
609 Solar Shifter EX Sep 11, 2015 $1.993% (28%)20,000 .. 50,0000%00:00 (00:00)
610 Hard Truck Apocalypse: Arcade / Ex Machina: Arcade May 24, 2007 $0.492% (26%)20,000 .. 50,0000%00:00 (00:00)
611 Gridberd Sep 7, 2015 $1.742% (26%)200,000 .. 500,0000%00:00 (00:00)
612 One Star Apr 17, 2017 $0.5N/A (N/A)50,000 .. 100,0000.33%01:20 (00:26)
613 Zombies on a Plane Mar 25, 2016 $1.24N/A (N/A)0 .. 20,0000%00:00 (00:00)
614 APOX Jan 20, 2011 $14.992% (23%/48%)20,000 .. 50,0000%00:00 (00:00)
615 Elite vs. Freedom May 31, 2016 $0.492% (22%)0 .. 20,0000%00:00 (00:00)
616 The Asskickers-Steam Edition Feb 6, 2015 $1.992% (21%)0 .. 20,0000%00:00 (00:00)
617 Lords of the Black Sun Sep 12, 2014 $4.492% (21%)0 .. 20,0008.33%02:01 (00:40)
618 Human Extinction Simulator Jan 21, 2015 $4.99N/A (N/A)0 .. 20,0000%00:00 (00:00)
619 Gemini Wars Nov 2, 2012 $2.691% (19%/53%)20,000 .. 50,0000%00:00 (00:00)
620 Star Project Aug 4, 2016 $0.49N/A (N/A)100,000 .. 200,0003.32%04:13 (04:33)
621 Tryst Sep 14, 2012 $14.99N/A (N/A/50%)0 .. 20,0000%00:00 (00:00)
622 Prison Tycoon 3: Lockdown Jan 29, 2008 $3.491% (16%)20,000 .. 50,0000%00:00 (00:00)
623 Once Bitten, Twice Dead! Jul 17, 2015 $4.991% (13%)20,000 .. 50,0000%00:00 (00:00)
624 Citadels Jul 25, 2013 $3.741% (12%/20%)20,000 .. 50,0000%00:00 (00:00)
625 Bloodbath Jun 16, 2014 $4.49N/A (N/A)0 .. 20,0000%00:00 (00:00)
626 Magnetic By Nature Nov 10, 2014 $9.99N/A (N/A)20,000 .. 50,0000%00:00 (00:00)

Owners of this game also own:

Access restricted.

This feature is only available to users with special access rights. Sorry.

If you want to proceed, you need to register or log in first and then back Steam Spy on Patreon. Look for Indie or Pro pledge.

Don't forget to use the same email as on Steam Spy!

Playtime distribution:

Access restricted.

This feature is only available to users with special access rights. Sorry.

If you want to proceed, you need to register or log in first and then back Steam Spy on Patreon. Look for Indie or Pro pledge.

Don't forget to use the same email as on Steam Spy!

Playtime (2 weeks):

Access restricted.

This feature is only available to users with special access rights. Sorry.

If you want to proceed, you need to register or log in first and then back Steam Spy on Patreon. Look for Indie or Pro pledge.

Don't forget to use the same email as on Steam Spy!

User reviews:

Login required.

Please register or log in to see this information.